Temperature
7 7 7 7 7 7 6 6 6 6 5 5 5 5 4 4 4 4 4 4 3 3 3 3 2 2 2 1 1 1 0 0 -0 0 1 1 1 1 1 1 1 2 2
7 7 7 7 6 6 6 6 6 5 5 5 5 4 4 4 4 3 3 3 3 3 3 2 2 2 1 1 1 0 0 -0 -1 -0 0 0 0 0 0 1 1 1 1
7 6 6 6 6 6 6 5 5 5 5 4 4 4 4 3 3 3 3 3 3 2 2 2 2 1 1 1 0 0 -0 -1 -1 -1 -1 -0 -0 -0 -0 -0 0 0 0
6 6 6 6 6 5 5 5 5 4 4 4 4 4 3 3 3 3 2 2 2 2 2 1 1 1 1 0 -0 -0 -1 -1 -1 -1 -1 -1 -1 -1 -1 -1 -0 -0 -0
6 6 5 5 5 5 5 5 4 4 4 3 3 3 3 3 2 2 2 2 2 1 1 1 1 0 0 -0 -1 -1 -1 -1 -2 -2 -2 -2 -2 -2 -2 -2 -2 -1 -1
5 5 5 5 5 5 4 4 4 4 4 3 3 3 3 2 2 2 1 1 1 1 1 0 0 -0 -0 -1 -1 -2 -2 -2 -2 -2 -3 -3 -3 -3 -3 -3 -3 -3 -2
5 5 5 4 4 4 4 4 4 3 3 3 3 2 2 2 2 1 1 1 1 0 0 -0 -0 -1 -1 -1 -2 -2 -2 -2 -3 -3 -3 -3 -3 -4 -4 -4 -4 -4 -4
4 4 4 4 4 4 3 3 3 3 3 3 2 2 2 2 1 1 1 0 0 -0 -0 -1 -1 -1 -1 -2 -2 -2 -2 -3 -3 -3 -3 -4 -4 -4 -4 -5 -5 -4 -4
4 4 4 4 3 3 3 3 3 3 2 2 2 2 1 1 1 0 -0 -0 -0 -1 -1 -1 -1 -2 -2 -2 -3 -3 -3 -3 -3 -4 -4 -4 -4 -5 -5 -5 -5 -5 -5
4 4 3 3 3 3 3 2 2 2 2 2 1 1 1 1 0 -0 -1 -1 -1 -1 -1 -1 -2 -2 -2 -3 -3 -3 -3 -3 -4 -4 -4 -4 -5 -5 -5 -5 -6 -6 -6
3 3 3 3 2 2 2 2 2 2 2 1 1 1 1 0 -0 -1 -1 -1 -1 -2 -2 -2 -2 -3 -3 -3 -4 -4 -4 -4 -4 -5 -5 -5 -5 -5 -5 -5 -6 -6 -6
3 3 3 3 2 2 2 2 1 1 1 1 1 1 0 -0 -1 -1 -1 -2 -2 -2 -2 -2 -3 -3 -3 -4 -4 -4 -5 -5 -5 -5 -5 -5 -5 -5 -5 -6 -6 -6 -6
3 3 3 2 2 2 1 1 1 1 1 1 0 0 0 -0 -1 -1 -2 -2 -3 -3 -3 -3 -3 -4 -4 -4 -5 -5 -5 -5 -6 -6 -6 -6 -6 -6 -6 -6 -6 -6 -6
2 2 2 2 2 2 1 1 1 0 0 0 -0 -0 -1 -1 -1 -2 -2 -3 -3 -3 -3 -4 -4 -4 -5 -5 -5 -5 -5 -6 -6 -6 -6 -6 -6 -6 -7 -7 -7 -7 -7
2 2 2 1 1 1 1 1 0 0 -0 -1 -1 -1 -2 -1 -2 -2 -3 -3 -3 -4 -4 -4 -5 -5 -5 -5 -5 -5 -6 -6 -6 -7 -7 -7 -7 -7 -7 -7 -8 -8 -8
1 1 1 1 1 1 0 0 0 -0 -0 -1 -1 -2 -2 -2 -3 -3 -3 -4 -4 -4 -5 -5 -5 -5 -5 -5 -5 -6 -6 -6 -7 -7 -7 -7 -7 -8 -8 -8 -8 -8 -9
1 1 0 0 0 -0 -0 -0 -0 -0 -1 -1 -1 -2 -2 -3 -3 -3 -4 -4 -4 -5 -5 -5 -5 -5 -5 -6 -6 -6 -6 -6 -7 -7 -7 -7 -8 -8 -8 -8 -9 -9 -9
0 0 -0 -0 -0 -1 -1 -1 -1 -2 -2 -2 -2 -2 -3 -3 -3 -4 -4 -5 -5 -5 -5 -5 -5 -5 -6 -6 -6 -6 -7 -7 -7 -7 -7 -8 -8 -8 -9 -9 -9 -9 -9
-0 -0 -0 -1 -1 -1 -2 -2 -2 -2 -3 -3 -2 -2 -3 -4 -4 -4 -5 -5 -5 -5 -5 -5 -5 -6 -6 -6 -6 -7 -7 -7 -7 -7 -8 -8 -8 -9 -9 -9 -9 -9 -10
-1 -1 -1 -1 -2 -2 -2 -2 -3 -3 -3 -3 -3 -3 -4 -4 -4 -4 -5 -5 -5 -5 -6 -6 -6 -6 -6 -6 -7 -7 -7 -7 -8 -8 -8 -8 -8 -9 -9 -9 -9 -10 -10
-1 -1 -2 -2 -2 -2 -3 -3 -3 -3 -3 -3 -3 -4 -4 -5 -5 -5 -5 -5 -5 -6 -6 -6 -6 -6 -6 -7 -7 -7 -7 -7 -8 -8 -8 -8 -9 -9 -9 -9 -9 -10 -10
-2 -2 -2 -2 -2 -3 -3 -3 -3 -4 -4 -4 -4 -4 -5 -5 -5 -5 -5 -6 -6 -6 -6 -6 -6 -7 -7 -7 -7 -7 -7 -8 -8 -8 -8 -8 -9 -9 -9 -9 -9 -10 -10
-2 -2 -2 -3 -3 -3 -3 -3 -4 -4 -4 -4 -5 -5 -5 -5 -5 -6 -6 -6 -6 -6 -6 -7 -7 -7 -7 -7 -7 -7 -8 -8 -8 -8 -9 -9 -9 -9 -9 -9 -9 -10 -10
-2 -3 -3 -3 -3 -3 -4 -4 -4 -4 -5 -5 -5 -5 -5 -6 -6 -6 -6 -6 -6 -7 -7 -7 -7 -7 -7 -7 -7 -8 -8 -8 -8 -9 -9 -9 -9 -9 -9 -9 -10 -10 -10
-3 -3 -3 -3 -4 -4 -4 -4 -4 -5 -5 -5 -6 -6 -6 -6 -6 -6 -7 -7 -7 -7 -7 -7 -7 -7 -7 -7 -8 -8 -8 -8 -8 -9 -9 -9 -9 -9 -9 -10 -10 -10 -10
-3 -3 -3 -4 -4 -4 -4 -5 -5 -5 -5 -6 -6 -6 -6 -6 -6 -7 -7 -7 -7 -7 -7 -7 -7 -7 -7 -7 -8 -8 -8 -8 -8 -9 -9 -9 -9 -9 -10 -10 -10 -10 -10
Wind_Speed
4 4 4 4 4 4 5 6 5 5 5 5 5 5 4 4 3 3 3 3 3 3 3 2 3 3 2 2 2 1 2 2 5 5 3 4 5 6 9 10 11 11 11
4 4 4 4 4 4 5 6 5 5 5 5 5 5 5 5 4 4 4 4 4 3 3 3 3 3 2 2 2 2 2 3 4 6 5 4 5 6 7 7 9 10 10
4 4 4 4 4 5 6 6 5 5 5 5 5 6 6 5 5 5 5 5 5 5 4 4 4 3 3 3 3 3 3 3 3 5 6 4 4 5 6 6 7 6 9
4 4 5 6 6 6 6 5 5 5 5 6 6 6 6 6 6 5 5 5 5 5 5 5 5 4 5 5 4 4 4 4 4 5 5 5 4 4 4 5 7 5 7
4 5 6 6 6 5 5 6 5 6 6 6 6 6 6 6 6 6 6 6 5 5 5 5 5 7 7 6 5 4 4 4 4 4 5 5 5 4 4 4 7 7 6
4 5 6 5 5 6 6 6 5 6 6 5 6 7 7 7 9 11 8 6 6 6 6 6 6 7 8 9 9 7 6 5 4 4 4 6 6 5 5 5 5 6 5
5 5 5 5 6 6 6 5 6 6 6 6 7 7 7 9 12 12 11 6 6 6 6 6 5 6 7 5 7 8 7 9 8 5 5 6 5 5 5 6 6 6 7
5 5 5 5 6 6 6 6 7 6 6 6 7 7 7 9 12 12 11 6 5 6 6 6 6 6 6 6 5 5 5 6 7 5 5 6 6 5 5 5 6 6 6
5 6 6 6 6 6 6 7 6 5 6 6 5 7 8 9 12 12 11 4 5 6 6 6 6 7 10 10 6 6 6 6 7 9 9 9 10 10 7 3 4 5 6
7 7 7 6 6 7 8 7 6 6 7 6 7 7 8 8 11 12 11 4 5 5 5 6 9 9 10 11 6 6 7 6 5 5 6 7 7 7 8 3 3 4 5
7 7 6 6 6 7 7 6 5 6 6 6 7 7 7 8 10 12 11 5 6 6 5 5 6 11 12 11 10 6 9 7 4 4 4 4 3 3 4 3 3 3 5
6 6 7 7 6 6 6 6 5 5 6 6 6 6 5 7 9 10 12 11 9 6 6 5 6 10 11 11 9 8 10 7 2 3 3 4 4 4 4 4 5 6 7
6 7 7 7 6 6 6 6 5 5 5 6 6 6 6 5 7 12 13 13 13 8 6 9 9 10 10 8 9 10 8 4 3 4 5 4 3 4 4 4 5 6 7
7 8 7 6 7 6 5 5 5 6 6 6 6 7 6 5 5 5 6 7 9 8 6 8 10 10 8 7 7 6 4 3 4 4 4 4 3 3 3 3 4 4 5
7 8 7 6 6 6 6 6 7 7 8 8 7 6 6 7 8 10 7 6 5 6 4 3 3 3 4 4 4 4 3 3 4 3 4 4 4 4 4 3 4 4 5
7 7 6 6 6 6 6 7 9 10 13 15 14 11 9 11 12 12 12 12 12 11 7 4 5 6 6 6 5 5 4 5 4 4 4 4 4 4 5 4 4 5 6
8 8 7 6 6 6 6 6 7 7 9 12 13 14 13 13 13 12 12 11 12 11 7 5 6 6 6 5 5 5 5 5 4 4 4 4 4 4 4 5 5 5 6
8 9 8 7 6 6 6 6 6 7 7 6 8 11 12 13 12 11 11 9 7 7 5 6 6 6 5 5 5 5 5 4 4 4 4 4 4 4 5 5 5 6 7
8 7 6 6 6 6 6 6 6 7 7 7 6 6 10 10 11 11 10 6 6 6 6 6 6 5 5 5 5 5 5 5 5 4 5 5 4 4 5 5 6 9 9
7 11 9 7 6 6 6 6 6 6 7 7 7 6 4 4 5 6 6 6 6 6 6 6 6 6 5 5 5 5 5 5 5 5 5 5 5 5 6 7 6 7 7
7 8 10 8 6 6 6 7 7 7 7 7 7 7 9 6 6 6 6 6 6 7 6 6 6 6 5 5 5 5 6 5 5 5 5 5 5 5 6 6 7 7 7
6 7 6 7 7 6 7 7 7 7 8 8 7 7 11 7 5 6 6 6 6 6 6 5 5 5 5 5 5 6 6 6 6 6 6 5 5 6 6 6 6 7 7
7 7 7 7 7 9 9 6 6 7 7 7 7 6 6 6 6 6 6 6 5 5 5 5 5 5 5 5 6 6 6 7 6 6 6 6 6 6 6 7 7 8 8
7 8 8 8 7 7 7 7 7 7 7 7 7 6 6 6 6 7 6 5 5 5 5 5 6 7 7 6 6 7 7 8 7 7 7 7 7 6 6 7 8 9 9
7 7 8 8 7 7 7 7 7 7 7 7 7 6 6 6 6 6 5 5 6 6 6 6 5 6 8 8 7 7 10 11 10 8 7 7 7 8 8 8 8 8 9
8 8 8 7 7 7 7 8 7 7 7 6 6 6 6 6 6 5 5 5 5 5 5 5 6 7 7 8 9 10 11 11 12 11 8 6 7 7 7 7 9 9 9
Wind_Direction
254 246 249 250 241 237 236 238 236 236 230 231 232 232 234 236 229 223 233 234 239 256 261 254 262 264 264 275 281 281 271 257 270 286 286 311 316 323 326 328 330 329 329
257 250 250 252 246 243 246 245 236 235 233 228 226 228 230 230 224 221 231 233 231 242 250 249 261 265 266 265 268 270 268 266 266 284 296 302 303 312 314 319 327 329 323
263 255 257 256 249 247 249 248 241 238 239 232 226 230 232 228 225 225 225 228 230 237 240 240 249 249 260 259 259 261 265 274 264 275 289 292 292 304 313 314 317 316 320
268 257 258 258 252 249 250 248 242 236 235 233 230 231 232 230 227 228 227 227 233 239 239 237 241 238 242 247 253 254 254 264 271 274 283 292 290 294 307 314 322 323 320
277 268 262 262 258 254 252 250 243 237 236 233 232 236 234 231 231 229 228 228 230 240 246 244 244 244 245 246 252 250 247 253 266 273 282 292 297 309 311 310 315 318 312
276 273 273 271 267 261 257 251 245 244 241 235 234 235 236 240 243 241 234 228 228 235 246 249 250 255 257 262 264 263 258 254 257 261 273 281 288 293 298 306 311 321 317
275 277 278 275 271 266 261 255 250 246 241 239 239 235 239 243 245 246 243 230 225 233 238 241 249 250 253 248 261 269 275 274 270 263 262 268 279 285 293 300 300 299 292
277 279 280 277 274 271 264 256 252 247 242 241 242 239 241 247 247 249 248 237 226 232 234 234 241 250 247 240 236 248 256 265 272 271 255 260 265 269 270 283 289 294 287
281 281 280 276 275 275 268 262 256 249 247 243 243 238 239 249 250 250 248 229 230 235 236 236 238 243 253 254 246 245 255 262 272 275 279 284 291 296 296 295 300 308 306
276 275 276 272 270 270 267 265 259 249 248 247 249 241 238 244 250 249 245 225 232 240 240 242 248 249 254 256 243 239 254 259 258 273 285 291 296 298 301 292 277 286 293
276 278 278 273 268 267 269 264 262 256 253 249 252 251 242 243 250 249 246 228 228 236 241 241 243 256 258 259 255 241 251 258 244 252 265 276 284 286 291 285 266 256 267
282 281 279 276 275 276 270 270 263 253 254 256 256 260 250 246 247 249 248 245 242 234 241 238 241 254 257 260 261 258 262 267 245 246 262 270 274 278 280 282 280 273 263
286 283 281 279 274 268 264 267 268 254 250 255 250 255 257 244 243 248 249 250 249 242 238 241 245 251 255 260 262 263 264 255 236 249 259 263 260 263 273 286 290 288 282
281 284 282 280 282 275 264 255 254 251 249 249 247 250 254 247 239 239 240 249 251 251 246 244 248 252 251 251 258 261 248 236 236 246 257 261 266 273 277 284 291 299 296
282 283 281 275 274 279 271 256 253 246 240 243 243 239 242 251 245 240 236 232 229 234 231 223 222 232 235 236 240 240 233 237 247 239 247 260 270 277 283 287 285 292 287
282 282 278 277 275 273 277 284 265 257 262 256 251 247 245 247 254 251 248 244 243 238 233 227 230 233 236 237 238 239 234 235 238 238 240 249 261 269 280 285 283 282 286
267 274 276 273 273 272 270 274 287 287 269 263 259 257 254 254 253 250 250 247 243 237 234 230 231 233 234 234 236 236 238 236 232 234 237 240 250 261 271 278 281 282 283
264 267 268 267 268 266 264 263 265 274 285 280 269 263 261 260 256 251 248 245 240 232 226 231 233 233 232 233 235 237 238 235 232 236 240 240 243 254 265 270 273 275 281
266 268 265 264 263 262 261 261 260 260 265 272 276 270 261 257 255 250 243 233 231 230 230 231 232 232 231 232 234 233 232 234 233 234 239 240 243 250 260 264 269 278 283
267 267 267 266 265 262 259 258 258 258 260 261 262 261 250 243 242 240 233 228 231 233 232 232 232 230 227 229 232 230 231 233 233 235 240 242 244 247 256 261 266 273 276
269 271 270 268 260 257 257 257 256 255 257 258 259 255 250 240 239 237 234 232 232 234 231 230 231 229 225 225 226 227 230 234 232 233 238 242 243 251 256 259 265 270 275
263 265 264 262 261 258 259 256 254 255 257 260 264 261 259 251 240 238 236 236 233 231 227 225 228 227 222 219 220 224 230 233 232 231 235 240 244 252 258 262 266 271 275
259 264 267 265 263 265 268 259 254 256 258 258 259 257 251 242 240 240 239 235 230 229 225 223 227 230 229 227 224 220 226 231 229 225 232 241 246 250 255 260 266 272 275
257 261 264 267 265 260 260 261 259 257 257 258 257 254 250 244 242 240 237 232 228 228 226 225 228 231 231 234 236 233 235 236 233 231 229 236 244 251 256 260 265 268 272
260 262 262 262 261 260 261 263 261 258 256 256 254 254 250 245 243 241 235 231 228 229 229 229 232 234 233 234 238 241 243 245 243 239 235 236 242 247 254 259 264 269 272
262 261 262 260 258 256 257 259 260 257 255 254 252 249 247 243 239 237 233 230 229 230 231 232 232 234 238 240 241 245 250 251 251 252 250 243 241 249 254 260 263 266 271
Height
1506 1505 1503 1502 1501 1500 1499 1497 1497 1496 1495 1493 1492 1491 1490 1489 1488 1487 1485 1484 1483 1481 1480 1479 1477 1476 1474 1473 1472 1471 1470 1468 1465 1462 1461 1459 1456 1454 1451 1449 1446 1444 1442
1503 1501 1500 1499 1497 1496 1495 1493 1492 1491 1490 1489 1488 1487 1486 1485 1484 1483 1481 1480 1479 1477 1476 1475 1473 1472 1471 1470 1468 1467 1466 1464 1462 1459 1457 1455 1452 1450 1447 1445 1442 1440 1438
1499 1498 1496 1495 1493 1492 1490 1489 1488 1486 1485 1484 1483 1482 1481 1480 1479 1478 1477 1476 1474 1473 1472 1470 1469 1468 1467 1466 1464 1463 1461 1460 1458 1456 1453 1451 1448 1446 1444 1441 1439 1436 1434
1495 1494 1492 1490 1489 1487 1486 1484 1483 1482 1480 1479 1478 1477 1476 1475 1474 1473 1472 1471 1470 1468 1467 1466 1465 1464 1462 1461 1460 1459 1457 1455 1454 1452 1449 1447 1445 1442 1440 1437 1434 1432 1429
1491 1489 1487 1486 1484 1483 1481 1479 1478 1477 1475 1474 1473 1472 1471 1470 1469 1468 1467 1466 1465 1463 1462 1461 1460 1459 1458 1457 1456 1454 1453 1451 1450 1448 1445 1443 1441 1438 1436 1433 1430 1427 1424
1487 1485 1483 1481 1479 1478 1476 1474 1473 1471 1470 1469 1467 1466 1465 1464 1463 1462 1461 1460 1459 1458 1457 1456 1455 1454 1453 1452 1451 1450 1449 1447 1445 1443 1441 1439 1437 1435 1432 1429 1426 1423 1419
1482 1480 1479 1476 1474 1473 1471 1469 1467 1466 1464 1463 1461 1460 1459 1458 1458 1457 1456 1455 1454 1453 1452 1451 1450 1449 1448 1447 1446 1445 1444 1443 1441 1440 1437 1435 1433 1431 1428 1426 1423 1420 1418
1478 1476 1474 1472 1469 1467 1465 1463 1462 1460 1458 1457 1455 1454 1453 1453 1452 1451 1450 1449 1448 1447 1447 1446 1445 1444 1443 1442 1441 1440 1439 1438 1436 1435 1433 1431 1429 1427 1425 1423 1420 1417 1414
1474 1471 1469 1467 1464 1462 1460 1458 1456 1454 1452 1451 1449 1448 1447 1447 1446 1446 1445 1443 1442 1441 1441 1440 1439 1439 1438 1437 1436 1434 1433 1432 1432 1430 1428 1427 1425 1423 1421 1419 1416 1413 1409
1469 1467 1465 1462 1459 1457 1454 1452 1450 1448 1446 1445 1443 1442 1441 1440 1440 1439 1439 1437 1436 1435 1435 1434 1434 1433 1433 1432 1431 1429 1428 1427 1426 1425 1424 1422 1420 1418 1417 1415 1412 1410 1406
1464 1462 1459 1457 1454 1451 1449 1446 1444 1442 1440 1438 1437 1436 1435 1434 1433 1433 1432 1431 1430 1429 1429 1428 1428 1428 1427 1426 1426 1424 1423 1422 1421 1420 1418 1417 1415 1414 1412 1410 1408 1406 1404
1459 1456 1454 1451 1449 1446 1443 1440 1438 1436 1434 1432 1430 1429 1428 1428 1427 1426 1426 1425 1425 1423 1423 1422 1422 1422 1421 1421 1420 1419 1418 1417 1416 1414 1413 1411 1410 1409 1407 1406 1404 1402 1399
1453 1451 1448 1445 1443 1440 1437 1434 1432 1430 1428 1426 1424 1422 1421 1421 1421 1420 1420 1419 1418 1418 1417 1416 1416 1416 1415 1415 1414 1414 1413 1412 1410 1409 1407 1406 1405 1404 1402 1400 1398 1396 1394
1448 1445 1442 1439 1437 1434 1432 1429 1426 1424 1421 1419 1418 1416 1415 1414 1414 1414 1413 1413 1413 1412 1411 1411 1410 1410 1410 1409 1408 1408 1407 1406 1405 1404 1402 1401 1400 1398 1397 1395 1393 1391 1388
1442 1439 1437 1434 1431 1428 1425 1423 1420 1418 1416 1414 1411 1410 1409 1408 1408 1408 1407 1407 1406 1406 1406 1405 1405 1404 1404 1403 1403 1402 1402 1401 1400 1399 1397 1396 1395 1393 1391 1390 1388 1385 1383
1436 1433 1431 1428 1425 1422 1419 1416 1414 1412 1410 1408 1406 1404 1402 1402 1402 1401 1401 1401 1400 1400 1400 1399 1399 1398 1398 1397 1397 1396 1396 1395 1394 1393 1392 1391 1390 1388 1386 1385 1383 1381 1378
1431 1427 1424 1422 1419 1415 1412 1409 1406 1404 1403 1401 1400 1398 1397 1396 1395 1395 1395 1395 1395 1395 1394 1393 1393 1393 1392 1392 1392 1391 1390 1390 1389 1388 1387 1386 1385 1383 1381 1380 1378 1376 1374
1425 1421 1418 1415 1412 1409 1406 1403 1401 1398 1395 1394 1393 1392 1391 1390 1389 1389 1389 1389 1388 1388 1388 1387 1387 1387 1387 1386 1386 1385 1385 1384 1383 1382 1382 1381 1380 1378 1377 1375 1373 1371 1369
1418 1415 1412 1409 1406 1403 1400 1397 1395 1392 1390 1388 1386 1386 1385 1384 1383 1383 1383 1383 1382 1382 1382 1381 1381 1381 1381 1381 1381 1380 1379 1379 1378 1377 1376 1375 1374 1373 1372 1370 1368 1366 1364
1411 1408 1405 1402 1399 1396 1393 1391 1389 1387 1384 1382 1380 1380 1379 1378 1377 1377 1377 1376 1376 1376 1375 1375 1375 1375 1375 1375 1375 1374 1374 1373 1372 1372 1371 1370 1369 1368 1367 1365 1363 1361 1359
1403 1400 1397 1395 1392 1389 1387 1385 1383 1381 1378 1376 1375 1374 1373 1372 1371 1370 1370 1370 1370 1369 1369 1369 1369 1370 1370 1369 1369 1369 1368 1368 1367 1366 1366 1365 1364 1363 1361 1360 1358 1356 1354
1396 1393 1390 1387 1385 1383 1380 1378 1376 1374 1372 1370 1369 1368 1367 1366 1365 1364 1364 1364 1363 1364 1364 1364 1363 1364 1364 1364 1363 1363 1363 1362 1362 1361 1360 1360 1359 1357 1356 1355 1353 1351 1350
1389 1386 1383 1380 1378 1376 1374 1372 1370 1368 1366 1365 1363 1362 1361 1360 1359 1359 1358 1358 1357 1358 1358 1358 1358 1358 1358 1358 1358 1358 1357 1357 1357 1356 1355 1354 1353 1352 1351 1349 1348 1346 1344
1382 1379 1376 1374 1371 1369 1367 1365 1364 1362 1360 1359 1357 1356 1355 1354 1354 1353 1352 1352 1352 1352 1352 1352 1352 1352 1352 1352 1352 1352 1352 1352 1351 1351 1350 1349 1348 1347 1346 1344 1343 1341 1339
1375 1372 1370 1367 1365 1363 1361 1359 1357 1355 1354 1353 1351 1350 1350 1349 1348 1347 1347 1346 1346 1346 1347 1347 1347 1347 1347 1347 1347 1347 1347 1346 1346 1346 1345 1344 1343 1342 1341 1339 1338 1336 1334
1368 1365 1363 1361 1358 1356 1355 1353 1351 1349 1348 1347 1346 1345 1344 1343 1342 1342 1341 1341 1341 1341 1341 1342 1342 1342 1342 1342 1342 1342 1342 1341 1341 1341 1340 1339 1338 1337 1336 1334 1333 1331 1329